Weather History for Rensselaer, IN

Change the Weather History Date:

Wednesday, February 20, 2013

  Actual Average (KVPZ) Record (KVPZ)
Temperature  
Mean Temperature 18 °F 29 °F  
Max Temperature 26 °F 37 °F 54 °F (2002)
Min Temperature 10 °F 21 °F 7 °F (2009)
Degree Days  
Heating Degree Days 47 36  
Month to date heating degree days 773  
Since 1 July heating degree days 4458  
Cooling Degree Days 0 0  
Month to date cooling degree days 0  
Year to date cooling degree days 0  
Moisture  
Dew Point 12 °F    
Average Humidity 74    
Maximum Humidity 86    
Minimum Humidity 59    
Precipitation  
Precipitation 0.00 in 0.05 in 1.31 in (2014)
Month to date precipitation 1.00  
Year to date precipitation 2.75  
Sea Level Pressure  
Sea Level Pressure 30.29 in    
Wind  
Wind Speed 10 mph (NW)    
Max Wind Speed 17 mph    
Max Gust Speed 25 mph    
Visibility 10 miles    
Events Snow    
T = Trace of Precipitation, MM = Missing Value Source: NWS Daily Summary

Daily Weather History Graph

Daily Weather History Graph

Search for Another Location

Airport:

Trip Planner

Search our weather history database for the weather conditions in past years. The results will help you decide how hot, cold, wet, or windy it might be!

Date:

Astronomy

Feb. 20, 2013 Rise Set
Actual Time 6:35 AM CST 5:29 PM CST
Civil Twilight 6:07 AM CST 5:57 PM CST
Nautical Twilight 5:35 AM CST 6:29 PM CST
Astronomical Twilight 5:04 AM CST 7:01 PM CST
Moon 12:49 PM CST (2/20) 2:57 AM CST (2/20)
Length of Visible Light 11h 49m
Length of Day
10h 53m
Waxing Gibbous, 76% of the Moon is Illuminated
Feb 20
Waxing Gibbous
Feb 25
Full
Mar 4
Last Quarter
Mar 11
New
Mar 19
First Quarter

Hourly Weather History & Observations

Time (CST) Temp. Windchill Dew Point Humidity Pressure Visibility Wind Dir Wind Speed Gust Speed Precip Events Conditions
12:15 AM 14.0 °F -0.8 °F 8.6 °F 79% 30.18 in 10.0 mi WNW 13.8 mph 20.7 mph N/A   Overcast
12:35 AM 14.0 °F -1.4 °F 8.6 °F 79% 30.19 in 10.0 mi WNW 15.0 mph 25.3 mph N/A   Overcast
12:55 AM 14.0 °F 0.5 °F 8.6 °F 79% 30.19 in 10.0 mi WNW 11.5 mph 19.6 mph N/A   Overcast
1:15 AM 14.0 °F -2.5 °F 6.8 °F 73% 30.20 in 10.0 mi West 17.3 mph 23.0 mph N/A   Overcast
1:35 AM 12.2 °F -1.0 °F 6.8 °F 79% 30.20 in 10.0 mi WNW 10.4 mph 17.3 mph N/A   Overcast
1:55 AM 12.2 °F -1.0 °F 5.0 °F 73% 30.21 in 10.0 mi WNW 10.4 mph 19.6 mph N/A   Scattered Clouds
2:15 AM 12.2 °F -1.8 °F 6.8 °F 79% 30.21 in 10.0 mi WNW 11.5 mph 18.4 mph N/A   Clear
2:35 AM 12.2 °F -1.8 °F 5.0 °F 73% 30.22 in 10.0 mi WNW 11.5 mph 20.7 mph N/A   Clear
2:55 AM 12.2 °F -2.5 °F 5.0 °F 73% 30.23 in 10.0 mi West 12.7 mph 19.6 mph N/A   Clear
3:15 AM 12.2 °F -3.7 °F 5.0 °F 73% 30.23 in 10.0 mi WNW 15.0 mph 18.4 mph N/A   Clear
3:35 AM 12.2 °F -2.5 °F 5.0 °F 73% 30.23 in 10.0 mi West 12.7 mph 18.4 mph N/A   Clear
3:55 AM 10.4 °F -4.8 °F 5.0 °F 79% 30.24 in 10.0 mi WNW 12.7 mph 17.3 mph N/A   Clear
4:35 AM 10.4 °F -4.1 °F 5.0 °F 79% 30.24 in 10.0 mi WNW 11.5 mph 18.4 mph N/A   Clear
4:55 AM 10.4 °F -4.8 °F 5.0 °F 79% 30.26 in 10.0 mi West 12.7 mph 16.1 mph N/A   Clear
5:15 AM 10.4 °F -4.1 °F 5.0 °F 79% 30.25 in 10.0 mi WNW 11.5 mph - N/A   Clear
5:35 AM 10.4 °F -4.1 °F 5.0 °F 79% 30.25 in 10.0 mi WNW 11.5 mph - N/A   Clear
5:55 AM 10.4 °F -4.1 °F 5.0 °F 79% 30.26 in 10.0 mi WNW 11.5 mph - N/A   Clear
6:15 AM 10.4 °F -2.4 °F 5.0 °F 79% 30.27 in 10.0 mi WNW 9.2 mph - N/A   Clear
6:35 AM 10.4 °F -1.5 °F 5.0 °F 79% 30.27 in 10.0 mi WNW 8.1 mph - N/A   Clear
6:55 AM 10.4 °F -2.4 °F 5.0 °F 79% 30.28 in 10.0 mi WNW 9.2 mph - N/A   Scattered Clouds
7:15 AM 10.4 °F -1.5 °F 5.0 °F 79% 30.28 in 10.0 mi WNW 8.1 mph - N/A   Clear
7:35 AM 12.2 °F -1.0 °F 5.0 °F 73% 30.28 in 10.0 mi West 10.4 mph - N/A   Clear
7:55 AM 12.2 °F -1.8 °F 5.0 °F 73% 30.29 in 10.0 mi West 11.5 mph - N/A   Clear
8:15 AM 12.2 °F 0.7 °F 5.0 °F 73% 30.29 in 10.0 mi WNW 8.1 mph - N/A   Clear
8:35 AM 14.0 °F 0.5 °F 6.8 °F 73% 30.30 in 10.0 mi WNW 11.5 mph - N/A   Clear
8:55 AM 14.0 °F 2.0 °F 6.8 °F 73% 30.30 in 10.0 mi WNW 9.2 mph - N/A   Clear
9:35 AM 15.8 °F 3.4 °F 8.6 °F 73% 30.31 in 10.0 mi WNW 10.4 mph - N/A   Clear
9:55 AM 17.6 °F 8.2 °F 8.6 °F 68% 30.32 in 10.0 mi WNW 6.9 mph - N/A   Clear
10:15 AM 17.6 °F 7.3 °F 10.4 °F 73% 30.32 in 10.0 mi WNW 8.1 mph - N/A   Clear
10:35 AM 19.4 °F 7.9 °F 10.4 °F 68% 30.32 in 10.0 mi WNW 10.4 mph - N/A   Clear
10:55 AM 19.4 °F 12.8 °F 10.4 °F 68% 30.32 in 10.0 mi West 4.6 mph - N/A   Clear
11:15 AM 21.2 °F 10.9 °F 12.2 °F 68% 30.32 in 10.0 mi West 9.2 mph 16.1 mph N/A   Clear
11:35 AM 21.2 °F 10.1 °F 12.2 °F 68% 30.31 in 10.0 mi West 10.4 mph - N/A   Clear
11:55 AM 21.2 °F 11.7 °F 12.2 °F 68% 30.30 in 10.0 mi West 8.1 mph - N/A   Clear
12:15 PM 23.0 °F 13.1 °F 12.2 °F 63% 30.31 in 10.0 mi West 9.2 mph - N/A   Scattered Clouds
12:35 PM 23.0 °F 15.8 °F 12.2 °F 63% 30.31 in 10.0 mi WNW 5.8 mph - N/A   Scattered Clouds
12:55 PM 23.0 °F 13.1 °F 14.0 °F 68% 30.32 in 10.0 mi WNW 9.2 mph 16.1 mph N/A   Scattered Clouds
1:15 PM 24.8 °F 14.0 °F 14.0 °F 64% 30.33 in 10.0 mi West 11.5 mph 16.1 mph N/A   Mostly Cloudy
1:35 PM 24.8 °F 12.9 °F 14.0 °F 64% 30.32 in 10.0 mi West 13.8 mph 18.4 mph N/A   Mostly Cloudy
1:55 PM 24.8 °F 14.0 °F 14.0 °F 64% 30.31 in 10.0 mi WNW 11.5 mph - N/A   Scattered Clouds
2:15 PM 26.6 °F 16.8 °F 15.8 °F 64% 30.30 in 10.0 mi WNW 10.4 mph - N/A   Scattered Clouds
2:35 PM 26.6 °F 16.2 °F 14.0 °F 59% 30.30 in 10.0 mi WNW 11.5 mph 17.3 mph N/A   Scattered Clouds
2:55 PM 26.6 °F 16.8 °F 15.8 °F 64% 30.30 in 10.0 mi WNW 10.4 mph 16.1 mph N/A   Scattered Clouds
3:15 PM 26.6 °F 17.5 °F 15.8 °F 64% 30.30 in 10.0 mi NW 9.2 mph - N/A   Scattered Clouds
3:35 PM 26.6 °F 16.8 °F 15.8 °F 64% 30.29 in 10.0 mi NNW 10.4 mph - N/A   Scattered Clouds
3:55 PM 26.6 °F 18.2 °F 15.8 °F 64% 30.29 in 10.0 mi NW 8.1 mph - N/A   Clear
4:15 PM 26.6 °F 18.2 °F 15.8 °F 64% 30.30 in 10.0 mi NW 8.1 mph - N/A   Scattered Clouds
4:35 PM 26.6 °F 19.1 °F 15.8 °F 64% 30.30 in 10.0 mi WNW 6.9 mph - N/A   Scattered Clouds
4:55 PM 24.8 °F 16.9 °F 15.8 °F 69% 30.30 in 10.0 mi WNW 6.9 mph - N/A   Clear
5:15 PM 24.8 °F 17.9 °F 15.8 °F 69% 30.30 in 10.0 mi NW 5.8 mph - N/A   Clear
5:55 PM 23.0 °F 17.0 °F 17.6 °F 80% 30.32 in 10.0 mi NW 4.6 mph - N/A   Clear
6:15 PM 23.0 °F 18.4 °F 15.8 °F 74% 30.32 in 10.0 mi WNW 3.5 mph - N/A   Clear
6:35 PM 23.0 °F 13.9 °F 17.6 °F 80% 30.33 in 10.0 mi NE 8.1 mph - N/A   Scattered Clouds
6:55 PM 23.0 °F 13.1 °F 17.6 °F 80% 30.33 in 10.0 mi NNE 9.2 mph - N/A   Clear
7:15 PM 23.0 °F 13.1 °F 15.8 °F 74% 30.33 in 10.0 mi NNE 9.2 mph - N/A   Clear
7:35 PM 21.2 °F 11.7 °F 15.8 °F 80% 30.34 in 10.0 mi NNE 8.1 mph - N/A   Clear
7:55 PM 21.2 °F 12.6 °F 15.8 °F 80% 30.34 in 10.0 mi NNE 6.9 mph - N/A   Clear
8:15 PM 19.4 °F 12.8 °F 15.8 °F 86% 30.33 in 10.0 mi NE 4.6 mph - N/A   Clear
8:35 PM 19.4 °F 11.5 °F 15.8 °F 86% 30.33 in 10.0 mi NE 5.8 mph - N/A   Clear
8:55 PM 19.4 °F 12.8 °F 15.8 °F 86% 30.33 in 10.0 mi ENE 4.6 mph - N/A   Clear
9:15 PM 19.4 °F 14.3 °F 15.8 °F 86% 30.34 in 10.0 mi NNE 3.5 mph - N/A   Scattered Clouds
9:35 PM 21.2 °F - 17.6 °F 86% 30.33 in 10.0 mi Calm Calm - N/A   Overcast
9:55 PM 21.2 °F - 17.6 °F 86% 30.33 in 10.0 mi Calm Calm - N/A   Overcast
10:15 PM 23.0 °F 17.0 °F 17.6 °F 80% 30.33 in 10.0 mi North 4.6 mph - N/A   Overcast
10:35 PM 23.0 °F 18.4 °F 17.6 °F 80% 30.34 in 10.0 mi North 3.5 mph - N/A   Overcast
10:55 PM 23.0 °F 17.0 °F 17.6 °F 80% 30.33 in 10.0 mi North 4.6 mph - N/A   Overcast
11:15 PM 23.0 °F - 19.4 °F 86% 30.34 in 10.0 mi Calm Calm - N/A   Overcast
11:35 PM 23.0 °F 18.4 °F 19.4 °F 86% 30.34 in 10.0 mi North 3.5 mph - N/A   Overcast
11:55 PM 23.0 °F - 19.4 °F 86% 30.34 in 10.0 mi Calm Calm - N/A Snow Light Snow